Location: Unspecified
(0.0000°N, 0.0000°E)
Time: 13:56:55
(UTC+00:00)

TIMED - Pass Details

Date: 01 August 2021
Orbit: 602 x 603 km, 74.1° (Epoch: 20 September)

Event Time Altitude Azimuth Distance (km) Brightness Sun altitude
Rises 04:58:28 0° 328° (NNW) 2,837 7.8 -16.1°
Reaches altitude 10° 05:00:56 10° 316° (NW) 1,938 6.9 -15.5°
Maximum altitude 05:04:37 27° 258° (WSW) 1,159 5.4 -14.7°
Drops below altitude 10° 05:08:19 10° 199° (SSW) 1,946 6.8 -13.8°
Sets 05:10:49 0° 187° (S) 2,852 7.7 -13.2°
